Regional Weather Roundup
Issued by NWS

Home | Current Version | Previous Version | Graphics & Text | Print | Product List | Glossary On
Versions: 1 2 3 4 5 6 7 8 9 10 11 12 13 14 15 16 17 18 19 20 21 22 23 24 25 26 27 28 29 30 31 32 33 34 35 36 37 38 39 40 41 42 43 44 45 46 47 48 49 50
000
ASUS43 KMKX 281121
RWRWI

WISCONSIN REGIONAL WEATHER ROUNDUP
NATIONAL WEATHER SERVICE MILWAUKEE/SULLIVAN WI
500 AM CST SAT FEB 28 2015

NOTE: "FAIR" INDICATES FEW OR NO CLOUDS BELOW 12,000 FEET WITH NO
SIGNIFICANT WEATHER AND/OR OBSTRUCTIONS TO VISIBILITY.

WIZ001-002-006>008-014>016-023>028-281200-
NORTHWEST WISCONSIN

CITY           SKY/WX    TMP DP  RH WIND       PRES   REMARKS
SUPERIOR ARPT  CLEAR      0  -5  79 SW5       30.49S WCI -10
ASHLAND        CLEAR      1  -5  75 S8        30.50R WCI -13
HAYWARD        CLEAR    -11 -18  71 CALM      30.47S
SIREN          PTCLDY    -7 -12  78 CALM      30.50R
CUMBERLAND     PTCLDY    -6  -9  84 S5        30.48S WCI -17
RICE LAKE      PTCLDY   -12 -16  80 SE3       30.53R
CHETEK         PTCLDY   -13 -17  82 SE3       30.52R
LADYSMITH      PTCLDY    -8 -13  79 CALM      30.52R
EAU CLAIRE     PTCLDY    -3  -8  79 S3        30.55R
MENOMONIE      PTCLDY    -2  -6  81 SE5       30.55S WCI -12
NEW RICHMOND   CLEAR     -3  -7  82 S6        30.51S WCI -15
OSCEOLA        PTCLDY    -2  -6  84 S5        30.55R WCI -13
$$

WIZ003>005-009-010-017-018-281200-
NORTH CENTRAL WISCONSIN

CITY           SKY/WX    TMP DP  RH WIND       PRES   REMARKS
MANITOWISH WTR PTCLDY   -16 -21  78 CALM      30.43S
ARBOR VITAE    FAIR     -10 -16  75 CALM      30.44S
WOODRUFF       FAIR     -10 -16  75 CALM      30.44S
RHINELANDER    PTCLDY    -8 -11  86 CALM      30.46R
EAGLE RIVER    PTCLDY   -10 -15  79 CALM      30.44S
LAND O LAKES   PTCLDY   -19 -25  75 S5        30.44R WCI -32
PHILLIPS       PTCLDY   -12 -16  83 CALM      30.46S
TOMAHAWK       PTCLDY   -16 -22  76 CALM      30.48S
MEDFORD        MOCLDY    -8 -12  84 CALM      30.48R
MERRILL        PTCLDY   -19 -24  74 CALM      30.50S
$$

WIZ029-030-035-036-043>047-281200-
CENTRAL WISCONSIN

CITY           SKY/WX    TMP DP  RH WIND       PRES   REMARKS
WAUSAU         PTCLDY    -5  -9  83 S3        30.52R
MOSINEE        MOCLDY    -6  -9  84 S3        30.53S
MARSHFIELD     MOCLDY    -8 -13  78 CALM      30.52S
STEVENS POINT  MOCLDY   -10 -14  82 S3        30.56S
WAUPACA        PTCLDY    -2  -8  75 CALM      30.60R
WAUTOMA        PTCLDY   -12 -18  75 CALM      30.61R
WISC RAPIDS    MOCLDY    -9 -14  78 CALM      30.58S
CAMP DOUGLAS   CLEAR    -12 -16  85 SE6       30.59R WCI -26
$$

WIZ011>013-019>022-031-037>040-048>050-281200-
NORTHEAST WISCONSIN

CITY           SKY/WX    TMP DP  RH WIND       PRES   REMARKS
ANTIGO         PTCLDY    -6  -9  89 CALM      30.48F
SHAWANO        CLEAR      2  -6  68 CALM      30.59R
OCONTO         CLEAR     -2  -9  73 CALM      30.60R
STURGEON BAY   CLEAR      3  -8  60 SW8       30.60R WCI -10
GREEN BAY      CLEAR      1  -6  72 SW6       30.61R WCI -10
MANITOWOC      CLEAR      3  -4  72 W7        30.62R WCI  -9
APPLETON       NOT AVBL
CLINTONVILLE   CLEAR      0  -8  71 SW5       30.59R WCI -10
OSHKOSH        CLEAR     -1  -9  68 SW3       30.61R
$$

WIZ032>034-041-042-053>061-281200-
SOUTHWEST WISCONSIN

CITY           SKY/WX    TMP DP  RH WIND       PRES   REMARKS
LA CROSSE      PTCLDY    -7 -12  79 S5        30.62R WCI -18
SPARTA         PTCLDY   -15 -21  74 CALM      30.61R
VIROQUA        PTCLDY    -5  -9  84 SW5       30.54S WCI -16
BOSCOBEL       PTCLDY   -17 -24  70 CALM      30.65R
PRAIRIE DU CHI PTCLDY   -15 -22  72 CALM      30.65R
PLATTEVILLE    PTCLDY    -6 -10  83 SE5       30.59S WCI -17
$$

WIZ056-057-062-063-064-067-068-281200-
SOUTH CENTRAL WISCONSIN

CITY           SKY/WX    TMP DP  RH WIND       PRES   REMARKS
REEDSBURG      CLEAR     -9 -13  83 CALM      30.60S
BARABOO/DELLS  CLEAR     -6 -11  79 CALM      30.59S
LONE ROCK      CLEAR    -15 -20  78 CALM      30.64R
MINERAL POINT  FAIR       0  -8  71 SW3       30.57S
MADISON        PTCLDY    -7 -11  83 CALM      30.62R
MIDDLETON      PTCLDY   -11 -17  75 CALM      30.62R
WATERTOWN      CLEAR     -7 -12  78 CALM      30.63R
MONROE         PTCLDY    -4  -6  92 S5        30.59S WCI -15
JANESVILLE     PTCLDY    -6 -13  71 CALM      30.63S
$$

WIZ051-052-058>065-066-070>072-281200-
SOUTHEAST WISCONSIN

CITY           SKY/WX    TMP DP  RH WIND       PRES   REMARKS
MILWAUKEE      CLEAR     -1 -10  65 SW3       30.65R
WAUKESHA       PTCLDY    -2  -8  78 SW6       30.63R WCI -14
MILWAUKEE/TIMM CLEAR      1  -8  66 W5        30.65R WCI  -8
RACINE         PTCLDY    -4 -10  75 SW5       30.68R WCI -15
BURLINGTON     PTCLDY   -13 -18  79 CALM      30.65R
KENOSHA        PTCLDY    -7 -12  79 CALM      30.65R
FOND DU LAC    CLEAR     -1  -8  72 SW5       30.62R WCI -11
SHEBOYGAN      CLEAR     -4 -10  75 W7        30.63R WCI -18
WEST BEND      CLEAR     -2  -9  71 CALM      30.62R
JUNEAU         CLEAR     -4  -9  77 S5        30.63R WCI -15
$$

LSZ147-162-281200-
LAKE SUPERIOR

STATION/POSITION TIME  TEMP    WIND        PRES    WAVE
                       AIR SEA DIR/SP/G            HT/PER
                 (UTC) (F)     (DEG/KT/KT) (MB)    (FT/S)
DEVILS ISLAND    1100    7     230/ 14/ 17 1033.8R
PORT WING        1040    4     190/  7/ 11 1032.2S
SAXON HARBOR     1040    4     200/  4/  8 1032.8R
$$

LMZ867-665-643>646-281200-
LAKE MICHIGAN

STATION/POSITION TIME  TEMP    WIND        PRES    WAVE
                       AIR SEA DIR/SP/G            HT/PER
                 (UTC) (F)     (DEG/KT/KT) (MB)    (FT/S)
NORTHPORT PIER   1000    6     210/  3/  7 1034.9R
SISTER BAY       1013    6     250/  9/ 12   N/A
KEWAUNEE LAKESHO 1100    4     280/  5/  7 1035.4R
SHEBOYGAN LAKESH 1100    4     250/  4/  6 1039.5R
PORT WASHINGTON  1000    3     270/  3/  5 1038.3R
MILWAUKEE LAKESH 1100    4     200/  5/  7   N/A
KENOSHA   LAKESH 1100   -1     270/  6/  8 1037.9S
$$

TC  - TEMPERATURE IN CELSIUS
VSB - VISIBILITY IN STATUTE MILES
WCI - WIND CHILL INDEX
HX  - HEAT INDEX




USA.gov is the U.S. government's official web portal to all federal, state and local government web resources and services.